Time,TemperatureF,DewpointF,PressureIn,WindDirection,WindDirectionDegrees,WindSpeedMPH,WindSpeedGustMPH,Humidity,HourlyPrecipIn,Conditions,Clouds,dailyrainin,SoftwareType,DateUTC
2013-03-12 08:32:00,40.4,32.4,30.12,NNW,341,0.0,0.0,73,0.00,CLR,,0.00,WeatherDisplay:10.37,2013-03-12 13:32:00,
2013-03-12 08:33:00,40.5,32.5,30.12,NNW,341,0.0,0.0,73,0.00,CLR,,0.00,WeatherDisplay:10.37,2013-03-12 13:33:00,
2013-03-12 08:38:00,41.0,32.7,30.13,NNW,341,0.0,0.0,72,0.00,CLR,,0.00,WeatherDisplay:10.37,2013-03-12 13:38:00,
2013-03-12 08:43:00,41.8,31.6,30.13,NNW,341,0.0,0.0,67,0.00,CLR,,0.00,WeatherDisplay:10.37,2013-03-12 13:43:00,
2013-03-12 08:48:00,42.7,31.0,30.13,NNW,341,0.0,0.0,63,0.00,CLR,,0.00,WeatherDisplay:10.37,2013-03-12 13:48:00,
2013-03-12 08:53:00,43.8,31.2,30.13,NNW,341,0.0,0.0,61,0.00,CLR,,0.00,WeatherDisplay:10.37,2013-03-12 13:53:00,
2013-03-12 08:58:00,44.9,31.8,30.14,NNW,341,0.0,0.0,60,0.00,CLR,,0.00,WeatherDisplay:10.37,2013-03-12 13:58:00,
2013-03-12 09:03:00,46.0,32.0,30.14,NNW,341,1.2,1.2,58,0.00,CLR,,0.00,WeatherDisplay:10.37,2013-03-12 14:03:00,
2013-03-12 09:08:00,47.4,32.9,30.14,NNW,341,3.5,3.5,57,0.00,CLR,,0.00,WeatherDisplay:10.37,2013-03-12 14:08:00,
2013-03-12 09:13:00,48.6,34.0,30.14,NNW,341,3.5,3.5,57,0.00,CLR,,0.00,WeatherDisplay:10.37,2013-03-12 14:13:00,
2013-03-12 09:18:00,49.6,33.6,30.14,NNW,341,6.0,6.0,54,0.00,CLR,,0.00,WeatherDisplay:10.37,2013-03-12 14:18:00,
2013-03-12 09:23:00,50.5,33.5,30.14,NNW,337,4.6,4.6,52,0.00,CLR,,0.00,WeatherDisplay:10.37,2013-03-12 14:23:00,
2013-03-12 09:28:00,51.2,34.2,30.15,NNW,332,5.8,5.8,52,0.00,CLR,,0.00,WeatherDisplay:10.37,2013-03-12 14:28:00,
2013-03-12 09:33:00,51.7,34.1,30.14,NW,321,3.5,3.5,51,0.00,CLR,,0.00,WeatherDisplay:10.37,2013-03-12 14:33:00,
2013-03-12 09:38:00,52.1,35.0,30.14,West,273,4.0,4.0,52,0.00,CLR,,0.00,WeatherDisplay:10.37,2013-03-12 14:38:00,
2013-03-12 09:43:00,52.6,35.0,30.15,WSW,256,3.5,3.5,51,0.00,CLR,,0.00,WeatherDisplay:10.37,2013-03-12 14:43:00,
2013-03-12 09:48:00,53.1,35.4,30.15,WSW,249,3.5,3.5,51,0.00,CLR,,0.00,WeatherDisplay:10.37,2013-03-12 14:48:00,
2013-03-12 09:53:00,53.7,36.0,30.15,WSW,242,5.8,5.8,51,0.00,CLR,,0.00,WeatherDisplay:10.37,2013-03-12 14:53:00,
2013-03-12 09:58:00,54.4,36.1,30.15,SSW,210,5.8,5.8,50,0.00,CLR,,0.00,WeatherDisplay:10.37,2013-03-12 14:58:00,
2013-03-12 10:03:00,55.1,36.3,30.15,SSW,203,5.8,5.8,49,0.00,CLR,,0.00,WeatherDisplay:10.37,2013-03-12 15:03:00,
2013-03-12 10:08:00,55.7,36.8,30.15,SSW,195,5.8,5.8,49,0.00,CLR,,0.00,WeatherDisplay:10.37,2013-03-12 15:08:00,
2013-03-12 10:13:00,56.3,37.4,30.15,SSW,199,6.9,6.9,49,0.00,CLR,,0.00,WeatherDisplay:10.37,2013-03-12 15:13:00,
2013-03-12 10:18:00,56.9,36.9,30.15,SSW,209,8.1,8.1,47,0.00,CLR,,0.00,WeatherDisplay:10.37,2013-03-12 15:18:00,
2013-03-12 10:23:00,57.4,37.3,30.15,South,190,5.8,5.8,47,0.00,CLR,,0.00,WeatherDisplay:10.37,2013-03-12 15:23:00,
2013-03-12 10:28:00,58.3,38.1,30.16,South,186,4.6,4.6,47,0.00,CLR,,0.00,WeatherDisplay:10.37,2013-03-12 15:28:00,
2013-03-12 10:33:00,59.3,36.8,30.16,South,183,12.7,12.7,43,0.00,CLR,,0.00,WeatherDisplay:10.37,2013-03-12 15:33:00,
2013-03-12 10:38:00,59.5,37.0,30.16,SSW,202,9.2,9.2,43,0.00,CLR,,0.00,WeatherDisplay:10.37,2013-03-12 15:38:00,
2013-03-12 10:43:00,60.0,37.4,30.16,SW,218,10.4,10.4,43,0.00,CLR,,0.00,WeatherDisplay:10.37,2013-03-12 15:43:00,
2013-03-12 10:48:00,60.4,37.2,30.16,SW,217,15.0,15.0,42,0.00,CLR,,0.00,WeatherDisplay:10.37,2013-03-12 15:48:00,
2013-03-12 10:53:00,60.5,36.7,30.17,SW,232,15.0,15.0,41,0.00,CLR,,0.00,WeatherDisplay:10.37,2013-03-12 15:53:00,
2013-03-12 10:58:00,60.6,36.1,30.17,South,180,5.8,6.1,40,0.00,CLR,,0.00,WeatherDisplay:10.37,2013-03-12 15:58:00,
2013-03-12 11:03:00,60.8,36.3,30.17,SSW,192,11.5,11.5,40,0.00,CLR,,0.00,WeatherDisplay:10.37,2013-03-12 16:03:00,
2013-03-12 11:08:00,61.1,35.9,30.17,SW,225,17.3,17.3,39,0.00,CLR,,0.00,WeatherDisplay:10.37,2013-03-12 16:08:00,
2013-03-12 11:13:00,61.3,36.1,30.17,SSW,200,12.7,12.7,39,0.00,CLR,,0.00,WeatherDisplay:10.37,2013-03-12 16:13:00,
2013-03-12 11:18:00,61.6,35.7,30.17,SW,225,13.8,13.8,38,0.00,CLR,,0.00,WeatherDisplay:10.37,2013-03-12 16:18:00,
2013-03-12 11:23:00,61.8,35.2,30.17,SSW,202,15.0,15.0,37,0.00,CLR,,0.00,WeatherDisplay:10.37,2013-03-12 16:23:00,
2013-03-12 11:28:00,62.0,35.4,30.17,SSW,208,17.3,17.3,37,0.00,CLR,,0.00,WeatherDisplay:10.37,2013-03-12 16:28:00,
2013-03-12 11:33:00,62.2,34.9,30.17,SSE,161,16.1,16.1,36,0.00,CLR,,0.00,WeatherDisplay:10.37,2013-03-12 16:33:00,
2013-03-12 11:38:00,62.7,35.3,30.17,South,182,16.1,16.1,36,0.00,CLR,,0.00,WeatherDisplay:10.37,2013-03-12 16:38:00,
2013-03-12 11:43:00,63.0,35.6,30.17,SSE,163,18.4,18.4,36,0.00,CLR,,0.00,WeatherDisplay:10.37,2013-03-12 16:43:00,
2013-03-12 11:48:00,63.1,35.0,30.16,South,175,12.7,12.7,35,0.00,CLR,,0.00,WeatherDisplay:10.37,2013-03-12 16:48:00,
2013-03-12 11:53:00,63.5,36.0,30.16,South,174,20.7,20.7,36,0.00,CLR,,0.00,WeatherDisplay:10.37,2013-03-12 16:53:00,
2013-03-12 11:58:00,63.9,35.0,30.16,South,171,17.3,17.3,34,0.00,CLR,,0.00,WeatherDisplay:10.37,2013-03-12 16:58:00,
2013-03-12 12:03:00,64.1,35.9,30.16,South,184,11.5,11.5,35,0.00,CLR,,0.00,WeatherDisplay:10.37,2013-03-12 17:03:00,
2013-03-12 12:08:00,64.8,35.8,30.15,SW,215,12.7,12.7,34,0.00,CLR,,0.00,WeatherDisplay:10.37,2013-03-12 17:08:00,
2013-03-12 12:13:00,65.3,35.4,30.16,SSW,209,19.6,19.6,33,0.00,CLR,,0.00,WeatherDisplay:10.37,2013-03-12 17:13:00,
2013-03-12 12:18:00,65.4,35.5,30.15,SSW,196,13.0,13.0,33,0.00,CLR,,0.00,WeatherDisplay:10.37,2013-03-12 17:18:00,
2013-03-12 12:23:00,65.6,34.9,30.16,SSW,207,16.1,16.1,32,0.00,CLR,,0.00,WeatherDisplay:10.37,2013-03-12 17:23:00,
2013-03-12 12:28:00,65.5,34.8,30.15,SW,219,10.4,10.4,32,0.00,CLR,,0.00,WeatherDisplay:10.37,2013-03-12 17:28:00,
2013-03-12 12:33:00,65.8,34.3,30.15,SW,223,16.1,16.1,31,0.00,CLR,,0.00,WeatherDisplay:10.37,2013-03-12 17:33:00,
2013-03-12 12:38:00,65.8,35.9,30.15,SSW,202,12.7,12.7,33,0.00,CLR,,0.00,WeatherDisplay:10.37,2013-03-12 17:38:00,
2013-03-12 12:43:00,66.3,36.3,30.15,South,180,12.0,12.0,33,0.00,CLR,,0.00,WeatherDisplay:10.37,2013-03-12 17:43:00,
2013-03-12 12:48:00,66.8,35.2,30.15,South,178,12.7,12.7,31,0.00,CLR,,0.00,WeatherDisplay:10.37,2013-03-12 17:48:00,
2013-03-12 12:53:00,67.1,33.8,30.15,SSW,205,18.4,18.4,29,0.00,CLR,,0.00,WeatherDisplay:10.37,2013-03-12 17:53:00,
2013-03-12 12:58:00,67.2,34.7,30.15,SW,216,12.7,12.7,30,0.00,CLR,,0.00,WeatherDisplay:10.37,2013-03-12 17:58:00,
2013-03-12 13:03:00,67.4,34.9,30.15,WSW,238,12.7,12.7,30,0.00,CLR,,0.00,WeatherDisplay:10.37,2013-03-12 18:03:00,
2013-03-12 13:08:00,67.8,36.0,30.14,SW,233,4.6,4.6,31,0.00,CLR,,0.00,WeatherDisplay:10.37,2013-03-12 18:08:00,
2013-03-12 13:13:00,68.5,34.1,30.14,SW,226,10.4,10.4,28,0.00,CLR,,0.00,WeatherDisplay:10.37,2013-03-12 18:13:00,
2013-03-12 13:18:00,68.6,35.1,30.14,SSW,194,11.5,11.5,29,0.00,CLR,,0.00,WeatherDisplay:10.37,2013-03-12 18:18:00,
2013-03-12 13:23:00,69.2,34.7,30.14,South,176,13.8,13.8,28,0.00,CLR,,0.00,WeatherDisplay:10.37,2013-03-12 18:23:00,
2013-03-12 13:28:00,69.4,34.9,30.13,WSW,256,6.9,6.9,28,0.00,CLR,,0.00,WeatherDisplay:10.37,2013-03-12 18:28:00,
2013-03-12 13:33:00,69.7,35.1,30.13,SW,230,12.7,12.7,28,0.00,CLR,,0.00,WeatherDisplay:10.37,2013-03-12 18:33:00,
2013-03-12 13:38:00,69.9,34.4,30.13,SW,217,10.4,10.4,27,0.00,CLR,,0.00,WeatherDisplay:10.37,2013-03-12 18:38:00,
2013-03-12 13:43:00,70.1,34.5,30.13,South,173,12.7,12.7,27,0.00,CLR,,0.00,WeatherDisplay:10.37,2013-03-12 18:43:00,
2013-03-12 13:48:00,70.6,35.0,30.12,SSE,164,10.4,10.4,27,0.00,CLR,,0.00,WeatherDisplay:10.37,2013-03-12 18:48:00,
2013-03-12 13:53:00,71.0,33.4,30.12,SSW,199,15.0,15.0,25,0.00,CLR,,0.00,WeatherDisplay:10.37,2013-03-12 18:53:00,
2013-03-12 13:58:00,71.1,33.5,30.12,SSW,213,11.5,11.5,25,0.00,CLR,,0.00,WeatherDisplay:10.37,2013-03-12 18:58:00,
2013-03-12 14:03:00,71.2,33.6,30.12,SW,225,11.5,11.5,25,0.00,CLR,,0.00,WeatherDisplay:10.37,2013-03-12 19:03:00,
2013-03-12 14:08:00,71.4,33.7,30.11,SW,220,11.5,11.5,25,0.00,CLR,,0.00,WeatherDisplay:10.37,2013-03-12 19:08:00,
2013-03-12 14:13:00,72.0,33.2,30.11,SW,221,16.1,16.1,24,0.00,CLR,,0.00,WeatherDisplay:10.37,2013-03-12 19:13:00,
2013-03-12 14:18:00,72.2,33.4,30.10,SSW,192,12.7,12.7,24,0.00,CLR,,0.00,WeatherDisplay:10.37,2013-03-12 19:18:00,
2013-03-12 14:23:00,72.1,33.3,30.10,South,184,11.5,11.5,24,0.00,CLR,,0.00,WeatherDisplay:10.37,2013-03-12 19:23:00,
2013-03-12 14:28:00,72.2,32.3,30.10,SW,219,15.0,15.0,23,0.00,CLR,,0.00,WeatherDisplay:10.37,2013-03-12 19:28:00,
2013-03-12 14:33:00,72.1,32.2,30.10,SW,223,16.1,16.1,23,0.00,CLR,,0.00,WeatherDisplay:10.37,2013-03-12 19:33:00,
2013-03-12 14:38:00,72.1,32.2,30.10,SW,221,13.0,13.0,23,0.00,CLR,,0.00,WeatherDisplay:10.37,2013-03-12 19:38:00,
2013-03-12 14:43:00,72.4,32.5,30.09,South,191,15.0,15.0,23,0.00,CLR,,0.00,WeatherDisplay:10.37,2013-03-12 19:43:00,
2013-03-12 14:48:00,73.0,33.0,30.09,SW,216,11.5,11.5,23,0.00,CLR,,0.00,WeatherDisplay:10.37,2013-03-12 19:48:00,
2013-03-12 14:53:00,73.3,32.1,30.09,SSW,199,15.0,15.0,22,0.00,CLR,,0.00,WeatherDisplay:10.37,2013-03-12 19:53:00,
2013-03-12 14:58:00,73.5,33.4,30.08,WSW,249,13.8,13.8,23,0.00,CLR,,0.00,WeatherDisplay:10.37,2013-03-12 19:58:00,
2013-03-12 15:03:00,73.5,32.3,30.09,SW,219,11.5,11.5,22,0.00,CLR,,0.00,WeatherDisplay:10.37,2013-03-12 20:03:00,
2013-03-12 15:08:00,73.5,32.3,30.08,South,187,16.1,16.1,22,0.00,CLR,,0.00,WeatherDisplay:10.37,2013-03-12 20:08:00,
2013-03-12 15:14:00,73.7,31.3,30.08,SW,215,16.1,16.1,21,0.00,CLR,,0.00,WeatherDisplay:10.37,2013-03-12 20:14:00,
2013-03-12 15:19:00,73.9,33.7,30.08,SSW,209,12.7,12.7,23,0.00,CLR,,0.00,WeatherDisplay:10.37,2013-03-12 20:19:00,
2013-03-12 15:24:00,74.1,32.8,30.08,SSW,205,15.0,15.0,22,0.00,CLR,,0.00,WeatherDisplay:10.37,2013-03-12 20:24:00,
2013-03-12 15:29:00,74.2,32.9,30.08,SSW,198,11.5,11.5,22,0.00,CLR,,0.00,WeatherDisplay:10.37,2013-03-12 20:29:00,
2013-03-12 15:34:00,74.5,33.1,30.08,SSW,211,13.8,13.8,22,0.00,CLR,,0.00,WeatherDisplay:10.37,2013-03-12 20:34:00,
2013-03-12 15:39:00,74.9,32.3,30.07,SW,228,11.5,11.5,21,0.00,CLR,,0.00,WeatherDisplay:10.37,2013-03-12 20:39:00,
2013-03-12 15:44:00,75.1,32.5,30.07,SSE,168,12.7,12.7,21,0.00,CLR,,0.00,WeatherDisplay:10.37,2013-03-12 20:44:00,
2013-03-12 15:49:00,75.2,32.6,30.07,SW,218,13.8,13.8,21,0.00,CLR,,0.00,WeatherDisplay:10.37,2013-03-12 20:49:00,
2013-03-12 15:54:00,75.3,32.6,30.07,SW,217,15.0,15.0,21,0.00,CLR,,0.00,WeatherDisplay:10.37,2013-03-12 20:54:00,
2013-03-12 15:59:00,75.3,32.6,30.07,SW,215,12.7,12.7,21,0.00,CLR,,0.00,WeatherDisplay:10.37,2013-03-12 20:59:00,
2013-03-12 16:04:00,75.4,32.7,30.07,SW,222,13.8,13.8,21,0.00,CLR,,0.00,WeatherDisplay:10.37,2013-03-12 21:04:00,
2013-03-12 16:09:00,75.5,32.8,30.07,SW,232,8.1,8.1,21,0.00,CLR,,0.00,WeatherDisplay:10.37,2013-03-12 21:09:00,
2013-03-12 16:14:00,75.6,32.9,30.06,SW,221,10.0,10.0,21,0.00,CLR,,0.00,WeatherDisplay:10.37,2013-03-12 21:14:00,
2013-03-12 16:19:00,75.8,31.8,30.06,SSW,198,2.3,6.8,20,0.00,CLR,,0.00,WeatherDisplay:10.37,2013-03-12 21:19:00,
2013-03-12 16:24:00,76.1,32.1,30.07,SSW,208,15.0,15.0,20,0.00,CLR,,0.00,WeatherDisplay:10.37,2013-03-12 21:24:00,
2013-03-12 16:29:00,76.2,30.9,30.06,SSW,194,12.7,12.7,19,0.00,CLR,,0.00,WeatherDisplay:10.37,2013-03-12 21:29:00,
2013-03-12 16:34:00,76.3,32.3,30.06,SSW,208,14.0,14.0,20,0.00,CLR,,0.00,WeatherDisplay:10.37,2013-03-12 21:34:00,
2013-03-12 16:39:00,76.4,31.1,30.06,South,184,16.0,16.0,19,0.00,CLR,,0.00,WeatherDisplay:10.37,2013-03-12 21:39:00,
2013-03-12 16:44:00,76.5,32.4,30.06,South,188,16.1,16.1,20,0.00,CLR,,0.00,WeatherDisplay:10.37,2013-03-12 21:44:00,
2013-03-12 16:49:00,76.6,32.5,30.06,South,182,10.4,10.4,20,0.00,CLR,,0.00,WeatherDisplay:10.37,2013-03-12 21:49:00,
2013-03-12 16:54:00,76.7,32.6,30.06,South,191,10.4,10.4,20,0.00,CLR,,0.00,WeatherDisplay:10.37,2013-03-12 21:54:00,
2013-03-12 16:59:00,76.9,31.5,30.06,SSW,195,6.9,6.9,19,0.00,CLR,,0.00,WeatherDisplay:10.37,2013-03-12 21:59:00,
2013-03-12 17:04:00,77.0,31.6,30.06,SSW,213,4.6,4.6,19,0.00,CLR,,0.00,WeatherDisplay:10.37,2013-03-12 22:04:00,
2013-03-12 17:09:00,77.0,31.6,30.06,South,186,11.5,11.5,19,0.00,CLR,,0.00,WeatherDisplay:10.37,2013-03-12 22:09:00,
2013-03-12 17:14:00,77.0,31.6,30.06,South,184,5.8,5.8,19,0.00,CLR,,0.00,WeatherDisplay:10.37,2013-03-12 22:14:00,
2013-03-12 17:19:00,77.0,31.6,30.06,SW,214,6.9,6.9,19,0.00,CLR,,0.00,WeatherDisplay:10.37,2013-03-12 22:19:00,
2013-03-12 17:24:00,77.1,31.6,30.06,South,191,11.5,11.5,19,0.00,CLR,,0.00,WeatherDisplay:10.37,2013-03-12 22:24:00,
2013-03-12 17:29:00,77.2,30.4,30.06,SSW,206,6.9,6.9,18,0.00,CLR,,0.00,WeatherDisplay:10.37,2013-03-12 22:29:00,
2013-03-12 17:34:00,77.3,30.5,30.06,SSW,193,4.6,4.6,18,0.00,CLR,,0.00,WeatherDisplay:10.37,2013-03-12 22:34:00,
2013-03-12 17:39:00,77.3,30.5,30.06,SSW,207,4.6,4.6,18,0.00,CLR,,0.00,WeatherDisplay:10.37,2013-03-12 22:39:00,
2013-03-12 17:44:00,77.4,30.5,30.06,SSW,209,9.2,9.2,18,0.00,CLR,,0.00,WeatherDisplay:10.37,2013-03-12 22:44:00,
2013-03-12 17:49:00,77.4,30.5,30.06,South,191,11.5,11.5,18,0.00,CLR,,0.00,WeatherDisplay:10.37,2013-03-12 22:49:00,
2013-03-12 17:54:00,77.3,30.5,30.06,South,191,11.5,11.5,18,0.00,CLR,,0.00,WeatherDisplay:10.37,2013-03-12 22:54:00,
2013-03-12 17:59:00,77.3,30.5,30.06,SSW,192,0.0,0.0,18,0.00,CLR,,0.00,WeatherDisplay:10.37,2013-03-12 22:59:00,
2013-03-12 18:04:00,77.4,30.5,30.06,SSW,196,2.3,2.3,18,0.00,CLR,,0.00,WeatherDisplay:10.37,2013-03-12 23:04:00,
2013-03-12 18:09:00,77.5,32.0,30.06,SSW,192,4.6,4.6,19,0.00,CLR,,0.00,WeatherDisplay:10.37,2013-03-12 23:09:00,
2013-03-12 18:14:00,77.5,30.6,30.07,South,187,4.0,4.0,18,0.00,CLR,,0.00,WeatherDisplay:10.37,2013-03-12 23:14:00,
2013-03-12 18:19:00,77.5,30.6,30.07,SSW,193,5.8,5.8,18,0.00,CLR,,0.00,WeatherDisplay:10.37,2013-03-12 23:19:00,
2013-03-12 18:24:00,77.5,30.6,30.07,SSW,207,9.2,9.2,18,0.00,CLR,,0.00,WeatherDisplay:10.37,2013-03-12 23:24:00,
2013-03-12 18:29:00,77.3,30.5,30.07,SSW,207,6.9,6.9,18,0.00,CLR,,0.00,WeatherDisplay:10.37,2013-03-12 23:29:00,
2013-03-12 18:34:00,77.3,30.5,30.07,SSW,207,0.0,0.2,18,0.00,CLR,,0.00,WeatherDisplay:10.37,2013-03-12 23:34:00,
2013-03-12 18:39:00,77.1,30.3,30.07,SSW,206,0.0,0.0,18,0.00,CLR,,0.00,WeatherDisplay:10.37,2013-03-12 23:39:00,
2013-03-12 18:44:00,77.0,31.6,30.08,SSW,205,3.5,3.5,19,0.00,CLR,,0.00,WeatherDisplay:10.37,2013-03-12 23:44:00,
2013-03-12 18:49:00,76.9,30.1,30.08,SSW,205,0.0,0.0,18,0.00,CLR,,0.00,WeatherDisplay:10.37,2013-03-12 23:49:00,
2013-03-12 18:54:00,76.8,31.4,30.08,SSW,205,3.5,3.5,19,0.00,CLR,,0.00,WeatherDisplay:10.37,2013-03-12 23:54:00,
2013-03-12 18:59:00,76.6,32.5,30.08,SSW,205,0.0,0.0,20,0.00,CLR,,0.00,WeatherDisplay:10.37,2013-03-12 23:59:00,
2013-03-12 19:04:00,76.4,32.3,30.08,SSW,204,0.0,0.0,20,0.00,CLR,,0.00,WeatherDisplay:10.37,2013-03-13 00:04:00,
2013-03-12 19:09:00,76.3,32.3,30.08,SSW,205,0.0,0.0,20,0.00,CLR,,0.00,WeatherDisplay:10.37,2013-03-13 00:09:00,
2013-03-12 19:14:00,76.1,34.5,30.08,SSW,204,0.0,0.0,22,0.00,CLR,,0.00,WeatherDisplay:10.37,2013-03-13 00:14:00,
2013-03-12 19:19:00,75.9,35.4,30.09,SSW,204,0.0,0.0,23,0.00,CLR,,0.00,WeatherDisplay:10.37,2013-03-13 00:19:00,
2013-03-12 19:24:00,75.7,35.3,30.09,SSW,203,0.0,0.0,23,0.00,CLR,,0.00,WeatherDisplay:10.37,2013-03-13 00:24:00,
2013-03-12 19:29:00,75.2,35.9,30.09,SSW,204,0.0,0.0,24,0.00,CLR,,0.00,WeatherDisplay:10.37,2013-03-13 00:29:00,
2013-03-12 19:34:00,74.5,37.3,30.09,SSW,204,0.0,0.0,26,0.00,CLR,,0.00,WeatherDisplay:10.37,2013-03-13 00:34:00,
2013-03-12 19:39:00,74.0,36.9,30.09,SSW,203,0.0,0.0,26,0.00,CLR,,0.00,WeatherDisplay:10.37,2013-03-13 00:39:00,
2013-03-12 19:44:00,73.6,37.5,30.09,SSW,204,0.0,0.0,27,0.00,CLR,,0.00,WeatherDisplay:10.37,2013-03-13 00:44:00,
2013-03-12 19:49:00,72.9,37.9,30.10,SSW,204,0.0,0.0,28,0.00,CLR,,0.00,WeatherDisplay:10.37,2013-03-13 00:49:00,
2013-03-12 19:54:00,71.8,37.8,30.10,SSW,204,0.0,0.0,29,0.00,CLR,,0.00,WeatherDisplay:10.37,2013-03-13 00:54:00,
2013-03-12 19:59:00,71.1,38.1,30.10,SSW,204,0.0,0.0,30,0.00,CLR,,0.00,WeatherDisplay:10.37,2013-03-13 00:59:00,
2013-03-12 20:04:00,70.5,38.4,30.10,SSW,204,0.0,0.0,31,0.00,CLR,,0.00,WeatherDisplay:10.37,2013-03-13 01:04:00,
2013-03-12 20:09:00,69.7,38.5,30.10,SSW,203,0.0,0.0,32,0.00,CLR,,0.00,WeatherDisplay:10.37,2013-03-13 01:09:00,
2013-03-12 20:14:00,68.8,37.7,30.10,SSW,203,0.0,0.0,32,0.00,CLR,,0.00,WeatherDisplay:10.37,2013-03-13 01:14:00,
2013-03-12 20:19:00,68.0,38.6,30.10,SSW,204,0.0,0.0,34,0.00,CLR,,0.00,WeatherDisplay:10.37,2013-03-13 01:19:00,
2013-03-12 20:24:00,67.0,38.4,30.11,SSW,204,0.0,0.0,35,0.00,CLR,,0.00,WeatherDisplay:10.37,2013-03-13 01:24:00,
2013-03-12 20:29:00,66.2,37.7,30.11,SSW,205,0.0,0.0,35,0.00,CLR,,0.00,WeatherDisplay:10.37,2013-03-13 01:29:00,
2013-03-12 20:34:00,65.3,37.6,30.11,SSW,203,0.0,0.0,36,0.00,CLR,,0.00,WeatherDisplay:10.37,2013-03-13 01:34:00,
2013-03-12 20:39:00,64.6,37.0,30.11,SSW,204,0.0,0.0,36,0.00,CLR,,0.00,WeatherDisplay:10.37,2013-03-13 01:39:00,
2013-03-12 20:44:00,63.8,36.3,30.11,SSW,204,0.0,0.0,36,0.00,CLR,,0.00,WeatherDisplay:10.37,2013-03-13 01:44:00,
2013-03-12 20:49:00,63.1,36.4,30.11,SSW,203,0.0,0.0,37,0.00,CLR,,0.00,WeatherDisplay:10.37,2013-03-13 01:49:00,
2013-03-12 20:54:00,62.5,36.5,30.11,SSW,204,0.0,0.0,38,0.00,CLR,,0.00,WeatherDisplay:10.37,2013-03-13 01:54:00,
2013-03-12 20:59:00,62.0,35.4,30.11,SSW,204,0.0,0.0,37,0.00,CLR,,0.00,WeatherDisplay:10.37,2013-03-13 01:59:00,
2013-03-12 21:04:00,61.6,34.4,30.11,SSW,204,0.0,0.0,36,0.00,CLR,,0.00,WeatherDisplay:10.37,2013-03-13 02:04:00,
2013-03-12 21:09:00,61.2,34.0,30.11,SSW,204,0.0,0.0,36,0.00,CLR,,0.00,WeatherDisplay:10.37,2013-03-13 02:09:00,
2013-03-12 21:14:00,60.8,33.7,30.12,SSW,204,0.0,0.0,36,0.00,CLR,,0.00,WeatherDisplay:10.37,2013-03-13 02:14:00,
2013-03-12 21:19:00,60.6,32.8,30.12,SSW,204,0.0,0.0,35,0.00,CLR,,0.00,WeatherDisplay:10.37,2013-03-13 02:19:00,
2013-03-12 21:24:00,60.4,33.3,30.12,SSW,203,0.0,0.0,36,0.00,CLR,,0.00,WeatherDisplay:10.37,2013-03-13 02:24:00,
2013-03-12 21:29:00,60.2,33.1,30.12,SSW,204,0.0,0.0,36,0.00,CLR,,0.00,WeatherDisplay:10.37,2013-03-13 02:29:00,
2013-03-12 21:34:00,60.1,33.0,30.12,SSW,204,0.0,0.0,36,0.00,CLR,,0.00,WeatherDisplay:10.37,2013-03-13 02:34:00,
2013-03-12 21:39:00,59.9,32.9,30.12,SSW,204,0.0,0.0,36,0.00,CLR,,0.00,WeatherDisplay:10.37,2013-03-13 02:39:00,
2013-03-12 21:44:00,59.7,32.7,30.12,SSW,204,0.0,0.0,36,0.00,CLR,,0.00,WeatherDisplay:10.37,2013-03-13 02:44:00,
2013-03-12 21:49:00,59.4,32.4,30.13,SSW,203,0.0,0.0,36,0.00,CLR,,0.00,WeatherDisplay:10.37,2013-03-13 02:49:00,
2013-03-12 21:54:00,59.4,32.4,30.13,SSW,204,0.0,0.0,36,0.00,CLR,,0.00,WeatherDisplay:10.37,2013-03-13 02:54:00,
2013-03-12 21:59:00,59.4,32.4,30.13,SSW,204,0.0,0.0,36,0.00,CLR,,0.00,WeatherDisplay:10.37,2013-03-13 02:59:00,
2013-03-12 22:04:00,59.4,33.1,30.14,SSW,204,0.0,0.0,37,0.00,CLR,,0.00,WeatherDisplay:10.37,2013-03-13 03:04:00,
2013-03-12 22:09:00,59.4,33.8,30.14,SSW,204,0.0,0.0,38,0.00,CLR,,0.00,WeatherDisplay:10.37,2013-03-13 03:09:00,
2013-03-12 22:14:00,59.4,33.8,30.14,SSW,203,0.0,0.0,38,0.00,CLR,,0.00,WeatherDisplay:10.37,2013-03-13 03:14:00,
2013-03-12 22:19:00,59.3,32.3,30.15,SSW,204,0.0,0.0,36,0.00,CLR,,0.00,WeatherDisplay:10.37,2013-03-13 03:19:00,
2013-03-12 22:24:00,59.2,32.2,30.15,SSW,204,0.0,0.0,36,0.00,CLR,,0.00,WeatherDisplay:10.37,2013-03-13 03:24:00,
2013-03-12 22:29:00,59.4,35.1,30.16,SSE,167,11.5,11.5,40,0.00,CLR,,0.00,WeatherDisplay:10.37,2013-03-13 03:29:00,
2013-03-12 22:34:00,60.1,36.3,30.16,SSE,160,11.5,11.5,41,0.00,CLR,,0.00,WeatherDisplay:10.37,2013-03-13 03:34:00,
2013-03-12 22:39:00,61.2,37.3,30.16,SSE,159,3.5,3.5,41,0.00,CLR,,0.00,WeatherDisplay:10.37,2013-03-13 03:39:00,
2013-03-12 22:44:00,62.1,38.1,30.16,SSE,157,6.9,6.9,41,0.00,CLR,,0.00,WeatherDisplay:10.37,2013-03-13 03:44:00,
2013-03-12 22:49:00,62.7,38.6,30.17,SSE,158,3.5,3.5,41,0.00,CLR,,0.00,WeatherDisplay:10.37,2013-03-13 03:49:00,
2013-03-12 22:54:00,62.8,38.7,30.17,SSE,157,0.0,0.0,41,0.00,CLR,,0.00,WeatherDisplay:10.37,2013-03-13 03:54:00,
2013-03-12 22:59:00,62.8,38.7,30.17,SSE,157,4.6,0.0,41,0.00,CLR,,0.00,WeatherDisplay:10.37,2013-03-13 03:59:00,
2013-03-12 23:00:00,62.8,38.7,30.17,SSE,157,4.6,0.0,41,0.00,CLR,,0.00,WeatherDisplay:10.37,2013-03-13 04:00:00,
2013-03-12 23:05:00,62.5,39.1,30.17,SSE,160,9.2,9.2,42,0.00,CLR,,0.00,WeatherDisplay:10.37,2013-03-13 04:05:00,
2013-03-12 23:10:00,62.2,38.8,30.18,SSE,160,4.6,4.6,42,0.00,CLR,,0.00,WeatherDisplay:10.37,2013-03-13 04:10:00,
2013-03-12 23:15:00,61.8,39.6,30.18,SSE,160,3.5,3.5,44,0.00,CLR,,0.00,WeatherDisplay:10.37,2013-03-13 04:15:00,
2013-03-12 23:20:00,61.5,39.9,30.18,SSE,160,3.5,3.5,45,0.00,CLR,,0.00,WeatherDisplay:10.37,2013-03-13 04:20:00,
2013-03-12 23:25:00,61.3,39.8,30.19,SSE,160,0.0,0.0,45,0.00,CLR,,0.00,WeatherDisplay:10.37,2013-03-13 04:25:00,
2013-03-12 23:30:00,60.9,39.4,30.19,SSE,160,2.0,0.0,45,0.00,CLR,,0.00,WeatherDisplay:10.37,2013-03-13 04:30:00,
2013-03-12 23:35:00,60.7,39.8,30.19,SSE,160,0.0,0.0,46,0.00,CLR,,0.00,WeatherDisplay:10.37,2013-03-13 04:35:00,
2013-03-12 23:40:00,60.3,39.4,30.19,SSE,160,0.0,0.0,46,0.00,CLR,,0.00,WeatherDisplay:10.37,2013-03-13 04:40:00,
2013-03-12 23:45:00,60.0,39.1,30.19,SSE,160,0.0,0.0,46,0.00,CLR,,0.00,WeatherDisplay:10.37,2013-03-13 04:45:00,
2013-03-12 23:50:00,59.8,39.0,30.20,SSE,160,0.0,0.0,46,0.00,CLR,,0.00,WeatherDisplay:10.37,2013-03-13 04:50:00,
2013-03-12 23:55:00,59.4,39.7,30.20,SSE,160,0.0,0.0,48,0.00,CLR,,0.00,WeatherDisplay:10.37,2013-03-13 04:55:00,